Dewpoint
55 56 57 58 60 60 59 59 58 58 57 57 57 57 56 56 55 55 54 53 54 54 54 54 53 52 50 43 36 49 61 58 41 32 31 26 23 16 14 14 14 14 16 18 33 33 34
54 52 55 57 57 60 60 59 59 58 57 57 56 56 56 56 56 55 54 54 54 54 54 53 52 52 49 35 28 39 41 44 28 28 30 24 16 16 16 15 12 17 20 29 31 26 30
52 54 54 56 57 58 59 59 58 58 57 57 56 56 56 56 56 56 55 54 54 55 54 52 51 49 44 34 33 37 35 30 26 29 24 25 21 22 22 24 21 21 17 24 24 26 31
52 53 54 55 56 56 58 58 58 58 57 57 56 56 55 55 55 55 54 54 54 54 52 51 51 49 41 36 34 32 34 34 32 27 26 28 29 27 27 29 22 19 20 19 23 21 30
52 52 53 54 55 56 56 58 57 58 57 57 56 55 55 54 55 55 54 54 54 52 52 51 50 49 40 42 31 29 29 29 31 32 31 28 31 29 27 26 20 19 16 14 19 18 25
51 52 52 53 55 56 56 57 57 57 57 56 56 55 54 54 55 54 54 54 53 51 51 49 47 44 45 31 26 27 27 27 31 32 32 31 29 27 26 22 23 19 16 18 14 13 17
51 51 51 52 54 55 55 56 58 56 56 56 56 55 54 55 55 54 52 49 47 48 47 36 35 35 27 26 27 26 25 26 31 31 29 31 26 23 24 29 24 20 19 14 13 14 16
51 51 51 50 53 53 54 54 56 56 56 56 55 55 55 54 54 53 52 46 43 47 44 42 28 34 32 31 25 22 22 25 29 27 35 31 23 30 28 24 23 20 17 20 14 14 14
50 51 51 50 51 52 53 54 54 56 56 55 55 54 55 54 54 52 48 43 44 46 43 36 31 28 29 28 24 20 21 22 28 31 30 31 28 32 24 19 20 18 16 21 18 14 13
49 50 50 51 50 50 52 53 54 56 56 55 54 54 53 53 50 49 46 45 45 50 38 30 27 27 28 25 23 20 20 20 35 30 31 34 31 27 22 19 17 17 25 22 18 18 15
47 49 49 50 50 50 51 52 53 54 56 55 54 54 53 53 52 45 49 45 53 55 32 25 26 26 24 23 21 20 22 22 23 24 25 35 34 29 19 23 26 23 28 25 18 18 26
47 47 49 50 50 50 51 52 53 53 55 54 53 53 53 52 51 51 53 58 54 42 28 21 22 23 23 23 19 19 21 24 25 23 22 31 38 37 29 27 26 28 25 23 24 23 29
46 47 48 49 49 49 50 51 52 53 54 54 53 53 53 50 46 50 55 55 39 30 22 20 21 23 22 21 19 19 23 20 19 23 22 20 22 27 29 29 24 22 21 27 31 31 27
45 47 47 49 49 49 50 51 52 53 54 54 52 52 52 50 52 57 56 50 32 24 26 17 19 21 19 20 19 18 18 17 17 17 18 17 26 23 25 23 32 33 18 30 27 29 26
44 46 47 48 49 49 50 50 52 52 53 53 52 52 50 52 55 57 53 43 32 28 22 20 18 19 19 18 18 18 19 17 17 17 20 30 28 30 26 22 23 21 21 24 27 35 34
43 45 46 46 47 49 49 50 51 52 53 52 50 47 47 54 57 54 49 40 33 29 25 21 18 19 18 17 19 20 18 18 16 18 34 36 35 34 27 26 25 25 23 26 26 25 21
43 45 44 44 46 48 48 50 51 52 53 52 49 42 49 55 56 49 42 39 37 30 26 25 20 19 19 19 20 19 18 18 21 24 27 32 34 29 27 24 16 26 23 22 18 28 29
44 43 43 44 44 47 48 48 50 52 52 51 47 38 51 56 45 39 41 38 35 32 27 28 26 21 21 23 21 19 19 23 24 26 26 26 27 31 24 25 25 25 27 24 35 24 30
43 43 43 44 44 46 47 48 50 51 52 50 42 44 56 53 36 39 41 38 33 31 29 29 27 26 24 23 22 22 22 36 35 30 30 32 29 29 22 25 27 24 21 20 25 32 29
43 42 43 44 44 44 47 47 50 51 52 51 42 43 51 52 39 38 40 36 32 33 27 29 27 26 26 24 26 25 24 35 36 34 40 40 27 22 27 22 25 27 24 19 22 35 29
42 42 43 44 44 43 46 47 48 51 51 51 47 41 45 43 44 40 41 35 31 30 29 29 27 24 29 27 25 28 26 35 35 38 34 34 25 24 21 22 24 25 22 20 18 23 26
42 43 44 44 43 46 46 46 48 51 51 48 43 40 44 41 43 40 40 38 30 27 29 31 28 27 30 29 29 28 29 35 32 37 34 34 33 32 30 28 26 25 22 22 21 18 18
42 44 45 44 46 46 45 46 48 49 50 47 45 48 44 42 41 40 41 38 34 33 33 31 31 31 31 33 39 39 39 40 34 37 37 36 38 36 33 27 26 29 28 25 23 21 21
44 43 45 46 45 45 46 46 45 47 50 49 46 49 46 41 39 39 40 37 32 33 37 33 34 35 40 40 40 39 37 36 37 37 37 37 39 41 37 32 28 20 20 17 20 18 17
44 43 45 45 45 45 47 47 47 46 48 50 54 55 49 43 39 38 40 37 33 34 37 37 42 42 44 42 41 38 41 39 36 32 32 35 39 38 36 29 23 19 16 18 18 18 21
44 44 45 46 46 46 47 47 47 47 47 50 51 56 54 47 42 37 35 37 36 43 43 42 44 47 45 45 46 37 35 30 29 31 28 29 38 41 36 35 30 29 23 23 23 29 27
44 44 45 46 47 47 46 46 47 47 46 50 52 54 56 47 42 41 36 38 42 45 43 44 43 43 45 50 41 44 38 29 33 34 36 38 41 37 35 37 34 26 25 27 28 33 32
44 45 45 45 47 47 46 46 46 46 47 50 50 53 55 51 43 43 39 38 40 44 45 45 43 43 48 45 47 45 43 40 35 29 36 36 39 37 40 35 31 26 27 27 37 37 35
44 45 45 46 46 46 47 47 47 48 49 50 48 52 55 55 50 53 51 50 49 49 48 47 44 43 44 44 48 50 40 41 42 37 30 35 36 39 36 37 35 30 31 32 36 35 36
Lifted_Index
8 8 6 5 5 4 4 5 6 7 8 8 8 9 9 9 9 9 9 10 10 10 9 9 9 7 5 2 1 0 0 1 3 3 2 1 2 2 1 1 1 1 0 -0 -0 -0 -1
10 9 7 6 5 4 4 4 5 6 7 8 8 9 9 9 9 9 9 10 10 10 9 9 8 7 4 2 1 0 1 1 2 2 2 2 2 2 1 0 0 0 0 -0 -0 -0 -0
11 10 9 7 6 5 4 4 4 5 7 8 8 8 9 9 9 9 9 9 10 9 9 9 8 6 3 2 1 1 1 1 2 2 2 2 2 1 1 0 0 0 0 0 0 -0 -0
11 10 10 8 7 6 5 5 4 5 6 7 8 8 9 9 9 9 9 9 10 9 9 9 7 4 2 2 1 1 1 1 1 1 2 1 1 1 1 0 0 1 0 0 0 -0 -0
11 11 10 9 8 6 6 5 4 4 6 7 8 8 9 9 9 9 9 9 9 9 9 8 5 2 1 1 1 1 1 1 0 1 1 1 1 1 0 0 1 1 1 0 0 0 0
11 11 10 9 8 7 6 5 4 4 5 6 8 8 9 9 9 9 9 9 8 8 7 5 3 1 0 0 1 1 1 1 0 0 0 1 0 0 -0 0 0 1 0 0 0 1 1
11 11 10 10 9 8 7 6 5 4 4 6 7 8 9 9 9 9 8 7 5 4 4 3 2 1 1 1 1 1 1 1 0 -0 -0 -0 -0 -0 -0 0 0 0 0 0 0 1 1
10 10 10 10 9 9 8 7 5 4 4 5 7 8 9 9 9 8 8 5 3 2 2 2 2 2 1 1 1 1 1 1 -0 -1 -1 -1 -0 -0 0 0 0 0 0 0 0 1 1
10 10 10 10 10 9 9 7 6 5 4 5 7 8 9 9 8 8 7 5 4 2 1 1 2 2 1 1 1 1 1 0 -0 -1 -0 -0 -0 0 0 0 0 0 0 -0 0 0 1
11 10 10 10 10 10 9 8 7 6 4 5 6 8 8 8 7 6 5 4 3 2 1 1 2 1 1 1 1 1 1 0 -0 -0 -0 0 0 0 1 1 0 0 -0 -0 -0 -0 0
11 11 10 10 10 10 9 9 7 6 4 4 6 8 8 8 6 5 3 2 1 1 1 1 2 1 1 1 1 1 1 0 -0 -0 -0 -0 0 0 1 0 -0 -0 -0 -0 -0 -0 -0
11 11 10 10 10 10 9 9 8 6 4 4 5 7 8 7 6 4 2 1 0 0 1 1 1 1 1 1 1 1 1 1 0 0 0 0 0 0 0 -0 -0 -1 -1 -1 -0 -0 -0
12 12 11 10 10 10 9 9 8 6 5 4 5 6 7 7 5 4 2 0 1 1 1 1 1 1 1 1 1 1 1 1 1 0 0 0 -0 -1 -0 -0 -0 -0 -1 -1 -1 -0 -0
13 12 11 10 10 9 9 9 8 7 5 4 5 6 7 6 4 2 1 1 2 2 1 1 1 1 1 1 1 1 1 1 1 1 0 -0 -0 -1 -1 -0 -0 -0 -0 -1 -1 -1 -1
14 13 12 11 10 10 9 9 8 7 5 4 5 6 7 6 4 2 1 1 2 2 1 1 1 1 0 0 1 1 1 1 1 0 -0 -0 -0 -0 -0 -0 -0 -0 -0 -0 -1 -1 -0
14 14 13 12 12 10 9 9 8 7 6 4 5 6 6 5 4 2 2 2 2 1 1 0 0 0 -0 0 0 1 1 1 1 0 -1 -1 -0 -0 -0 -0 0 0 -0 0 -0 -0 -0
14 14 14 13 13 11 10 9 8 7 6 4 4 5 4 3 3 3 3 2 2 1 1 0 0 0 -0 -0 -0 0 0 0 0 -0 -0 -0 -0 -0 -0 -0 0 0 0 0 0 -0 -0
13 13 13 14 13 12 11 10 9 7 6 5 4 4 3 2 4 4 3 2 2 1 1 1 0 0 -0 -0 -0 -0 -0 -0 -0 -0 -0 -0 -0 -0 -0 -0 0 0 0 0 0 0 0
10 11 12 13 13 12 11 10 9 8 7 5 4 3 2 2 4 4 3 2 2 1 1 0 0 0 0 0 0 -0 -0 -0 -0 -0 -0 -0 -0 0 -0 -0 -0 -0 0 0 0 1 1
8 9 11 12 12 12 11 10 9 8 7 6 4 3 2 2 4 4 2 1 2 1 1 0 0 0 1 1 0 0 0 0 0 0 0 0 0 1 0 -0 -1 -0 0 1 1 1 1
7 8 9 10 11 11 11 10 9 8 7 6 5 3 2 3 3 3 2 1 1 1 1 0 0 0 0 0 0 0 0 0 0 1 0 0 1 1 0 -0 -0 -0 0 1 1 1 2
6 7 7 8 8 9 10 9 8 7 6 6 5 3 2 2 3 2 1 1 1 1 1 0 0 0 -0 -0 -0 -0 -0 -0 0 0 0 0 0 1 1 0 0 1 1 1 1 2 2
5 5 6 6 6 7 8 9 8 7 6 6 5 3 2 2 2 2 1 1 1 1 0 -0 -0 -0 -1 -1 -1 -0 -0 -0 -0 -0 -0 -0 -0 0 1 1 1 2 2 2 2 2 2
4 4 4 3 4 5 6 7 8 7 7 6 5 2 1 2 2 1 0 0 1 0 -1 -1 -1 -1 -1 -1 -0 -0 -0 -0 -0 -0 -0 -0 -0 1 1 2 2 3 3 3 3 3 3
3 3 2 1 2 3 5 6 7 8 7 6 4 1 1 1 1 0 -0 -0 -0 -0 -1 -1 -1 -1 -1 -1 -0 -0 0 0 0 1 1 0 0 1 2 2 2 3 3 3 3 3 3
2 1 1 0 0 2 4 6 7 8 7 5 2 1 0 -0 -0 -0 -0 -1 -1 -1 -1 -1 -1 -1 -1 -1 -1 -0 0 0 1 1 1 1 1 2 2 2 2 3 3 4 4 4 4
1 0 0 -0 0 2 4 6 6 7 6 4 1 0 -1 -1 -1 -1 -1 -1 -1 -1 -1 -0 -0 -0 -1 -1 -1 -0 -0 0 1 1 1 2 2 2 2 2 2 3 4 4 4 4 4
0 0 -0 -0 1 3 5 6 6 6 5 3 1 -1 -1 -1 -2 -2 -1 -1 -2 -2 -1 -0 -0 -0 -1 -1 -1 -1 -0 0 1 1 1 2 2 2 2 2 3 4 4 4 4 4 4
0 0 -0 -0 1 3 5 6 6 5 4 3 1 -1 -1 -2 -2 -2 -1 -1 -2 -2 -1 -1 -1 -1 -1 -1 -1 -1 -0 0 0 1 2 2 1 1 1 2 3 4 5 5 5 5 5